{"data":{"norad_id":59217,"intl_designator":"2024-046S","name":"STARLINK-31499","alt_names":[],"object_type":"PAYLOAD","status":"ACTIVE","operator":null,"country":"US","launch_date":"2024-03-11","launch_site_code":"AFWTR","launch_vehicle":null,"mission":null,"orbit_class":"UNKNOWN","rcs_meters":null,"size_class":null,"mass_kg":null,"dimensions":null,"purposes":["comms"],"wikipedia_slug":null,"has_3d_model":false,"image_url":null,"decayed_at":null,"tle_current":{"epoch":"2026-05-25T00:51:14.101632Z","epoch_age_seconds":79230,"freshness":"FRESH","line1":"1 59217U 24046S   26145.03557988  .00000334  00000+0  21036-4 0  9998","line2":"2 59217  53.1605 159.6430 0001254  86.4741 273.6405 15.34389373124747","mean_motion":15.34389373,"eccentricity":0.0001254,"inclination_deg":53.1605,"raan_deg":159.643,"arg_perigee_deg":86.4741,"mean_anomaly_deg":273.6405,"bstar":2.1036e-5,"rev_number":12474,"period_min":93.848408059849,"perigee_km":461.87698074595,"apogee_km":463.59267139993,"semimajor_km":6840.8718260729,"source":"CELESTRAK","updated_at":"2026-05-25T13:38:18.867381Z"}}}